Location: Ford County Road and Bridge Department
(37.7686°N, 99.9762°W)
Time: 15:20:22
(UTC+00:00)

Cosmos 2360 Rocket - Pass Details

Date: 18 January 2020
Orbit: 835 x 844 km, 71.0° (Epoch: 26 February)

Event Time Altitude Azimuth Distance (km) Brightness Sun altitude
Rises 00:34:53 0° 332° (NNW) 3,402 5.5 -9.6°
Reaches altitude 10° 00:37:24 10° 327° (NNW) 2,462 4.8 -10.1°
Maximum altitude 00:42:50 51° 253° (WSW) 1,051 3.2 -11.1°
Drops below altitude 10° 00:48:13 10° 179° (S) 2,440 4.8 -12.2°
Sets 00:50:42 0° 174° (S) 3,369 5.5 -12.6°
